Showing default

FLOCK 4G 1, 62666

Orbit data source: Space-Track

FLOCK 4G 1, 62666 is a payload satellite owned by Planet (US) in SSO that was launched on Tue, 14 Jan 2025 UTC via an FALCON 9 launch vehicle from the Air Force Western Test Range (AFWTR). Payload-class satellites include a variety of spacecraft equipped with specific instruments for various scientific and technological missions. These include communications satellites like Starlink; space stations such as the ISS; scientific satellites like the Hubble; Earth observation satellites from companies like Planet Labs, Umbra, and HawkEye 360; GPS; miniature CubeSats for education and research; and military/defense satellites.

Loading next visibility...
Identifier
62666, 2025-009BK
Orbit
SSO
Country
Flag of USUS
Related business
Manufacturer
Planet
Mission
Operational Commercial Imaging
Bus & Motor
CUBESAT 3U, Unknown motor
Mass
5.7 kg wet, 5.7 kg dry
Launch date (UTC)
2025-01-14 (9 months ago)
Launch vehicle
FALCON 9
Launch site
Air Force Western Test Range (AFWTR)
Object type
Payload
Rocket body
Debris
Shape & HBR
Box + 2 Pan, 1.0 m
Radar Cross Section
0.072 m², Medium (>0.1 m² and < 1m²)

Expand to show TLE details & history
Last TLE update: 14 hours ago

TLE from 14 hours ago
0 FLOCK 4G 1
1 62666U 25009BK  25300.67536721  .00012201  00000-0  51099-3 0  9992
2 62666  97.4231  19.3634 0005787  71.1272 289.0592 15.23671416 43432
Epoch: 2025-10-27T16:12Z
TLE epoch observation values (Epoch: 2025-10-27T16:12:31.726Z)
Latitude
-0.00007°
Longitude
99.95741°
Altitude
496.576 km
Speed
7.617 km/s
True Right ascension
01h 17m 27s
True Declination
0° 00' 00"
Sunlit
Object was in full shadow at epoch
Visualization orbit readout
Latitude
Unknown
Longitude
Unknown
Altitude
Unknown
Speed
Unknown
Apparent Right ascension
Unknown
Apparent Declination
Unknown
Sunlit
N/A
Visualization observer readout
Local Sidereal Time
01:27:27
Azimuth
Unknown
Elevation
Unknown
Doppler factor
Unknown
Orbital elements
Apogee altitude
495.715 km
Perigee altitude
487.764 km
Semi-major axis
6,869.876 km
Eccentricity
0.00058
Inclination
97.4231°
RAAN
19.3634°
Arg. of periapsis
71.1272°
True anomaly
288.99651°
Mean anomaly
289.0592°
Eccentric anomaly
289.02785°
Mean motion
3.81171 °/min
Orbital period
94.45 mins
BSTAR
0.00051099
Loading maneuver chart data...
Computing Atmospheric mass density...
Loading historical data...
Loading historical data...
Loading historical data...
Loading historical data...
Loading historical data...
Loading historical data...
Loading historical data...

Documentation

Showing up to 5 results
|